FW0247 Weather Reports


time (UTC)temp
F
wind
direction
speed
knots
gust
knots
rain 1hr
in
rain 24hr
in
rain mn
in
humidity
%
barometer
mb
20260505061627 51 268 0.0 0.0 0.03 0.12 0.12 95 1014.4
20260505054625 51 268 0.0 0.0 0.03 0.10 0.10 95 1014.6
20260505053059 50 268 0.0 0.0 0.05 0.09 0.09 94 1014.7
20260505051559 50 268 0.0 0.9 0.06 0.09 0.09 94 1014.6
20260505041555 52 278 0.0 1.7 0.02 0.03 0.03 93 1015.5
20260505040059 52 305 0.0 0.9 0.01 0.02 0.02 92 1015.3
20260505034552 52 261 0.0 0.9 0.02 0.02 0.02 91 1014.5
20260505033053 52 261 0.0 1.7 0.01 0.01 0.01 89 1014.1
20260505031550 53 290 0.0 4.3 0.01 0.01 0.01 87 1013.9
20260505030051 53 271 0.9 5.2 0.00 0.00 0.00 87 1014.1
20260505024606 54 257 1.7 5.2 0.00 0.00 0.00 86 1014.2
20260505023050 54 274 0.9 4.3 0.00 0.00 0.00 87 1014.3
20260505021603 54 280 0.9 7.0 0.00 0.00 0.00 87 1013.9
20260505020049 54 330 1.7 3.5 0.00 0.00 0.00 88 1014.1
20260505014548 55 276 0.9 5.2 0.00 0.00 0.00 88 1014.1
20260505013048 55 300 0.9 5.2 0.00 0.00 0.00 87 1014.4
20260505011554 56 288 0.0 2.6 0.00 0.00 0.00 86 1014.4
20260505010047 56 316 0.9 4.3 0.00 0.00 0.00 85 1014.4
20260505004548 56 289 1.7 4.3 0.00 0.00 0.00 82 1014.5
20260505003046 57 276 1.7 4.3 0.00 0.00 0.00 80 1014.6
20260505001546 58 269 0.9 3.5 0.00 0.00 0.00 82 1014.5
20260505000046 58 274 1.7 4.3 0.00 0.00 0.00 78 1014.4
20260504234544 59 284 0.9 2.6 0.00 0.00 0.00 76 1014.3
20260504233056 60 297 0.9 3.5 0.00 0.00 0.00 74 1014.3
20260504231544 60 293 1.7 5.2 0.00 0.00 0.00 72 1014.1
20260504230044 61 46 0.0 1.7 0.00 0.00 0.00 73 1014.2
20260504224543 61 238 0.9 2.6 0.00 0.00 0.00 74 1014.3
20260504223049 61 305 0.9 4.3 0.00 0.00 0.00 73 1014.3
20260504221547 62 339 1.7 6.1 0.00 0.00 0.00 72 1014.4
20260504220101 62 304 0.9 5.2 0.00 0.00 0.00 72 1014.4
20260504214543 63 129 1.7 6.1 0.00 0.00 0.00 70 1014.4
20260504213040 63 15 0.9 4.3 0.00 0.00 0.00 71 1014.3
20260504211539 62 288 0.9 4.3 0.00 0.00 0.00 71 1014.3
20260504210039 62 318 0.9 5.2 0.00 0.00 0.00 71 1014.5
20260504204556 62 168 1.7 4.3 0.00 0.00 0.00 71 1014.5
20260504203039 61 327 0.0 4.3 0.00 0.00 0.00 72 1014.4
20260504201537 61 74 1.7 4.3 0.00 0.00 0.00 73 1014.4
20260504200042 61 283 1.7 7.0 0.00 0.00 0.00 71 1014.6
20260504194540 61 308 1.7 5.2 0.00 0.00 0.00 70 1014.5
20260504193036 62 313 1.7 3.5 0.00 0.00 0.00 66 1014.3
20260504191538 64 289 0.0 3.5 0.00 0.00 0.00 65 1014.4
20260504190037 65 114 0.9 2.6 0.00 0.00 0.00 64 1014.5
20260504184534 63 70 0.0 1.7 0.00 0.00 0.00 69 1014.6
20260504183029 61 97 0.0 3.5 0.00 0.00 0.00 71 1014.5
20260504181526 62 345 0.0 3.5 0.00 0.00 0.00 69 1014.5
20260504180025 63 46 1.7 3.5 0.00 0.00 0.00 69 1014.6
20260504174524 62 70 0.0 2.6 0.00 0.00 0.00 71 1014.4
20260504173022 62 39 0.9 3.5 0.00 0.00 0.00 74 1014.2
20260504171520 60 71 1.7 5.2 0.00 0.00 0.00 75 1014.3
20260504081541 48 13 0.0 0.0 0.00 0.00 0.00 94 1013.9